Location: Unspecified
(0.0000°N, 0.0000°E)
Time: 10:23:25
(UTC+00:00)

Explorer 7 - All Passes

Search period start: 16 June 2025 00:00
Search period end: 26 June 2025 00:00
Orbit: 445 x 571 km, 50.3° (Epoch: 15 June)

Date Brightness Start Highest point End Pass type
(mag) Time Alt. Az. Time Alt. Az. Time Alt. Az.
16 Jun - 00:31:18 10° NNW 00:34:58 56° NE 00:38:48 10° SE night (unlit)
16 Jun - 12:22:00 10° SSW 12:26:02 63° SE 12:29:52 10° NE daylight
17 Jun - 00:12:14 10° NNW 00:15:53 64° NE 00:19:45 10° SE night (unlit)
17 Jun - 12:02:53 10° SSW 12:06:58 72° SE 12:10:51 10° NE daylight
17 Jun - 23:53:08 10° NNW 23:56:49 74° NE 00:00:40 10° SE night (unlit)
18 Jun - 11:43:45 10° SW 11:47:52 81° SE 11:51:48 10° NE daylight
18 Jun - 23:34:04 10° NW 23:37:43 84° NE 23:41:35 10° SE night (unlit)
19 Jun - 11:24:37 10° SW 11:28:45 89° WNW 11:32:42 10° NE daylight
19 Jun - 23:14:58 10° NW 23:18:37 85° SW 23:22:27 10° SE night (unlit)
20 Jun - 11:05:29 10° SW 11:09:38 79° NW 11:13:36 10° NNE daylight
20 Jun - 22:55:53 10° NW 22:59:30 74° SW 23:03:17 10° SSE night (unlit)
21 Jun - 10:46:20 10° SW 10:50:29 70° NW 10:54:27 10° NNE daylight
21 Jun - 22:36:47 10° NW 22:40:22 64° SW 22:44:06 10° SSE night (unlit)
22 Jun - 10:27:11 10° SW 10:31:19 62° NW 10:35:17 10° NNE daylight
22 Jun - 22:17:40 10° NW 22:21:13 55° SW 22:24:54 10° SSE night (unlit)
23 Jun - 10:08:02 10° SW 10:12:08 54° NW 10:16:05 10° NNE daylight
23 Jun - 21:58:34 10° NW 22:02:02 48° SW 22:05:39 10° SSE night (unlit)
24 Jun - 09:48:52 10° SW 09:52:56 48° NW 09:56:51 10° NNE daylight
24 Jun - 21:39:28 10° NW 21:42:52 42° SW 21:46:24 10° SSE night (unlit)
25 Jun - 07:53:40 10° SE 07:54:54 11° SE 07:56:06 10° ESE daylight
25 Jun - 09:29:42 10° SW 09:33:43 43° NW 09:37:36 10° NNE daylight
25 Jun - 21:20:21 10° WNW 21:23:39 37° SW 21:27:06 10° SSE night (unlit)
